Date String (YYYY-MM-DD hh:mm:ss) UTC,Instrument flags,Ambient pressure (hPa),Sample flow (lpm),Bypass flow (lpm),Sample temperature (°C),Ambient temperature (°C),ASC tube jacket temperature (°C),LED temperature (°C),Box temperature (°C),Sample RH (%),Span deviation,Mass concentration (μg/m³),Mass concentration (μg/m³),Mass concentration (μg/m³)
DateTimeUTC,F1_M11,P_M11,Q1_M11,Q2_M11,T1_M11,T2_M11,T3_M11,T4_M11,T5_M11,U1_M11,ZSPAN_M11,X2_M11,X0_M11,X1_M11
2022-04-12 02:00:00,,0806.3,5.00,0.00,29.0,28.1,00.0,37.8,30.8,06.8,0000.0,0005.84,0027.53,0002.32
2022-04-12 02:01:00,,0806.3,5.00,0.00,29.0,28.1,00.0,37.8,30.8,06.9,0000.0,0005.85,0028.87,0002.33
2022-04-12 02:02:00,,0806.3,5.00,0.00,29.0,28.1,00.0,37.8,30.8,06.9,0000.0,0005.88,0028.63,0002.33
2022-04-12 02:03:00,,0806.3,5.00,0.00,29.0,28.1,00.0,37.8,30.7,06.9,0000.0,0005.82,0028.41,0002.32
2022-04-12 02:04:00,,0806.3,4.99,0.00,29.0,28.1,00.0,37.9,30.8,07.0,0000.0,0005.80,0027.23,0002.33
2022-04-12 02:05:00,,0806.3,5.01,0.00,29.0,28.1,00.0,37.9,30.8,06.9,0000.0,0005.85,0027.76,0002.33
2022-04-12 02:06:00,,0806.4,5.00,0.00,29.0,28.0,00.0,37.9,30.7,06.9,0000.0,0005.86,0027.43,0002.33
2022-04-12 02:07:00,,0806.5,5.00,0.00,29.0,28.1,00.0,37.9,30.7,06.9,0000.0,0005.80,0026.30,0002.33
2022-04-12 02:08:00,,0806.5,5.01,0.00,28.9,28.1,00.0,37.9,30.7,06.9,0000.0,0005.83,0026.26,0002.35
2022-04-12 02:09:00,,0806.5,4.98,0.00,28.9,28.0,00.0,37.9,30.7,06.9,0000.0,0005.87,0026.06,0002.38
2022-04-12 02:10:00,,0806.4,5.02,0.00,28.9,28.0,00.0,37.9,30.7,06.9,0000.0,0005.90,0025.84,0002.41
2022-04-12 02:11:00,,0806.4,4.98,0.00,28.9,28.0,00.0,37.9,30.7,06.9,0000.0,0005.89,0024.03,0002.43
2022-04-12 02:12:00,,0806.3,5.01,0.00,28.9,28.0,00.0,37.9,30.7,06.9,0000.0,0005.89,0023.87,0002.44
2022-04-12 02:13:00,,0806.3,4.99,0.00,28.9,28.0,00.0,37.9,30.7,07.8,0000.0,0005.86,0023.42,0002.45
2022-04-12 02:14:00,,0806.3,5.00,0.00,28.9,28.0,00.0,37.9,30.7,08.1,0000.0,0005.94,0022.81,0002.50
2022-04-12 02:15:00,,0806.4,5.01,0.00,28.9,28.0,00.0,37.9,30.7,07.7,0000.0,0005.89,0022.46,0002.52
2022-04-12 02:16:00,,0806.3,4.99,0.00,28.9,28.0,00.0,37.9,30.7,07.6,0000.0,0005.81,0021.81,0002.52
2022-04-12 02:17:00,,0806.3,5.00,0.00,28.9,28.0,00.0,37.9,30.7,07.9,0000.0,0005.81,0021.88,0002.52
2022-04-12 02:18:00,,0806.3,5.01,0.00,28.9,28.0,00.0,37.9,30.7,07.9,0000.0,0005.85,0021.74,0002.54
2022-04-12 02:19:00,,0806.2,4.98,0.00,28.9,28.0,00.0,37.9,30.7,07.7,0000.0,0005.84,0020.62,0002.53
2022-04-12 02:20:00,,0806.2,5.01,0.00,28.9,28.0,00.0,37.9,30.7,07.6,0000.0,0005.85,0020.79,0002.51
2022-04-12 02:21:00,,0806.1,4.99,0.00,28.9,28.0,00.0,37.9,30.7,07.6,0000.0,0005.80,0021.17,0002.48
2022-04-12 02:22:00,,0806.1,5.01,0.00,28.9,28.0,00.0,37.9,30.7,07.6,0000.0,0005.75,0021.91,0002.47
2022-04-12 02:23:00,,0806.2,4.99,0.00,28.9,28.0,00.0,37.9,30.7,07.6,0000.0,0005.75,0021.41,0002.46
2022-04-12 02:24:00,,0806.1,5.01,0.00,28.9,28.0,00.0,37.9,30.7,07.5,0000.0,0005.74,0021.18,0002.46
2022-04-12 02:25:00,,0806.1,4.99,0.00,28.9,28.0,00.0,37.9,30.7,07.5,0000.0,0005.75,0021.99,0002.42
2022-04-12 02:26:00,,0806.2,5.01,0.00,28.9,28.0,00.0,37.9,30.7,07.5,0000.0,0005.79,0022.26,0002.42
2022-04-12 02:27:00,,0806.2,4.99,0.00,28.9,28.1,00.0,37.9,30.7,07.5,0000.0,0005.82,0022.67,0002.43
2022-04-12 02:28:00,,0806.2,5.02,0.00,28.9,28.1,00.0,37.9,30.7,07.4,0000.0,0005.83,0023.94,0002.42
2022-04-12 02:29:00,,0806.2,4.98,0.00,28.9,28.1,00.0,37.9,30.7,07.4,0000.0,0005.85,0024.43,0002.41
2022-04-12 02:30:00,,0806.2,5.01,0.00,28.9,28.1,00.0,37.9,30.7,07.5,0000.0,0005.86,0024.74,0002.41
2022-04-12 02:31:00,,0806.3,5.01,0.00,28.9,28.0,00.0,37.9,30.7,07.5,0000.0,0005.73,0024.07,0002.41
2022-04-12 02:32:00,,0806.4,4.99,0.00,28.9,28.0,00.0,37.9,30.7,07.4,0000.0,0005.73,0023.26,0002.41
2022-04-12 02:33:00,,0806.4,4.99,0.00,28.9,28.0,00.0,37.9,30.7,07.3,0000.0,0005.76,0022.38,0002.42
2022-04-12 02:34:00,,0806.5,5.01,0.00,28.9,28.0,00.0,37.9,30.7,07.2,0000.0,0005.78,0021.60,0002.43
2022-04-12 02:35:00,,0806.4,4.99,0.00,28.9,28.0,00.0,37.9,30.7,07.2,0000.0,0005.78,0021.20,0002.41
2022-04-12 02:36:00,,0806.3,5.01,0.00,28.9,28.0,00.0,37.9,30.7,07.2,0000.0,0005.80,0020.62,0002.42
2022-04-12 02:37:00,,0806.3,4.99,0.00,28.9,28.0,00.0,37.9,30.7,07.6,0000.0,0005.73,0020.64,0002.41
2022-04-12 02:38:00,,0806.3,5.01,0.00,28.9,28.0,00.0,37.9,30.7,07.7,0000.0,0005.76,0021.57,0002.42
2022-04-12 02:39:00,,0806.3,4.99,0.00,28.9,28.0,00.0,37.9,30.7,07.9,0000.0,0005.81,0021.09,0002.42
2022-04-12 02:40:00,,0806.2,5.01,0.00,28.9,28.0,00.0,37.9,30.7,07.9,0000.0,0005.80,0021.02,0002.43
2022-04-12 02:41:00,,0806.2,5.00,0.00,28.9,28.0,00.0,37.9,30.7,08.0,0000.0,0005.77,0020.71,0002.45
2022-04-12 02:42:00,,0806.3,5.00,0.00,28.9,28.0,00.0,37.9,30.7,08.1,0000.0,0005.84,0021.84,0002.45
2022-04-12 02:43:00,,0806.3,5.01,0.00,28.9,28.0,00.0,37.9,30.7,08.0,0000.0,0005.93,0022.79,0002.47
2022-04-12 02:44:00,,0806.3,5.00,0.00,28.9,28.0,00.0,37.9,30.6,08.0,0000.0,0005.91,0023.32,0002.48
2022-04-12 02:45:00,,0806.3,5.00,0.00,28.9,28.0,00.0,37.9,30.6,08.0,0000.0,0005.83,0023.22,0002.46
2022-04-12 02:46:00,,0806.3,5.00,0.00,28.9,28.0,00.0,37.9,30.6,08.0,0000.0,0005.80,0023.32,0002.48
2022-04-12 02:47:00,,0806.3,5.00,0.00,28.9,27.9,00.0,37.9,30.6,08.0,0000.0,0005.78,0023.12,0002.47
2022-04-12 02:48:00,,0806.3,5.00,0.00,28.9,27.9,00.0,37.9,30.7,08.0,0000.0,0005.85,0022.76,0002.47
2022-04-12 02:49:00,,0806.3,5.00,0.00,28.9,27.9,00.0,37.9,30.6,07.9,0000.0,0005.86,0022.17,0002.45
2022-04-12 02:50:00,,0806.2,4.99,0.00,28.9,27.9,00.0,37.9,30.6,07.9,0000.0,0005.91,0021.96,0002.45
2022-04-12 02:51:00,,0806.2,5.00,0.00,28.9,27.9,00.0,37.9,30.6,07.9,0000.0,0005.95,0021.52,0002.45
2022-04-12 02:52:00,,0806.1,5.01,0.00,28.9,27.9,00.0,37.8,30.6,07.9,0000.0,0005.93,0022.02,0002.42
2022-04-12 02:53:00,,0806.1,4.98,0.00,28.9,27.9,00.0,37.8,30.6,07.9,0000.0,0005.97,0021.96,0002.42
2022-04-12 02:54:00,,0806.2,5.01,0.00,28.9,28.0,00.0,37.8,30.7,07.9,0000.0,0005.97,0021.65,0002.42
2022-04-12 02:55:00,,0806.1,5.01,0.00,28.9,28.0,00.0,37.8,30.7,08.0,0000.0,0005.95,0021.59,0002.38
2022-04-12 02:56:00,,0806.1,4.99,0.00,28.9,28.0,00.0,37.8,30.6,08.0,0000.0,0006.15,0022.45,0002.40
2022-04-12 02:57:00,,0806.1,5.01,0.00,28.9,28.0,00.0,37.8,30.6,08.0,0000.0,0006.27,0023.30,0002.40
2022-04-12 02:58:00,,0806.1,5.00,0.00,28.9,27.9,00.0,37.8,30.6,08.0,0000.0,0006.35,0024.04,0002.40
2022-04-12 02:59:00,,0806.1,5.01,0.00,28.9,27.9,00.0,37.8,30.6,08.0,0000.0,0006.28,0024.41,0002.39
